Simultaneous Nadir Overpasses (SNOs) Predictions

Prediction of SNOs between GOES-14 and NPP Satellite Orbit:

Table of predicted SNOs for the next 14.0 days since TLE Epoch: 4/6/2024
Index Date Time (GOES-14) GOES-14 Lat,Lon NPP Lat,Lon Distance(km) Time Diff (sec)
1 04/06/2024 20:30:47 -0.17,-108.54 0.39,-106.12 276.86 80
2 04/08/2024 08:52:34 0.17,-108.53 0.84,-111.38 325.40 80
3 04/09/2024 08:31:10 0.17,-108.53 -0.22,-106.86 191.05 80
4 04/10/2024 20:53:08 -0.17,-108.56 -0.96,-112.17 411.52 80
5 04/11/2024 20:37:03 -0.17,-108.56 0.04,-107.64 105.25 80
6 04/13/2024 08:58:51 0.17,-108.55 1.12,-112.92 496.58 80
7 04/14/2024 08:37:27 0.18,-108.55 0.11,-108.38 19.90 80
8 04/16/2024 20:40:39 -0.18,-108.57 -0.33,-109.15 66.72 80
9 04/17/2024 20:24:34 -0.19,-108.58 0.67,-104.62 450.39 80
10 04/19/2024 08:46:23 0.18,-108.58 0.48,-109.90 150.64 80
